CZ-6A DEB

Satellite information

Favourite Embed

Satellite Type and Status

DEBRISIN ORBIT

Key statistics

Satellite CZ-6A DEB at a glance.

Uptime

908

Days in orbit

Revolutions

≈ 14.5

Per day

Orbit

SSO

Sun Synchronous Orbit

Inclination

98.6

Latest

Satellite identification and parameters

Extended collection of information and parameters for CZ-6A DEB.

Object identification

Identified? True

Debris? True

Object name: CZ-6A DEB

International designator: 2022-151TB

Object number (NORAD): 54962

Object ID (CCSDS): 54962

Country: PEOPLES REPUBLIC OF CHINA (PRC)

Current information (Y/N): Y

RCS size: SMALL

Orbital parameters

Period: 99.128 minutes

Inclination: 98.6379 deg

SMA: 7095.081 km

Apoapsis: 810.518 km

Periapsis: 623.374 km

RAAN: 173.2171 deg

Eccentricy: 0.0131883

Argument of periapsis: 62.9138 deg

Mean anomaly: 298.5441 deg

Mean motion: 14.52669149 rev/day

Mean motion (dot): 0.00003113 rev/day2

B* drag term: 0.00068915 1/REarth

Two-line elements (TLE)

Creation date: May 5, 2025, 3:06 p.m.

Reference frame: TEME

Reference center: EARTH

Epoch: May 5, 2025, 1:18 p.m. UTC

TLE line 0: 0 CZ-6A DEB

TLE line 1: 1 54962U 22151TB 25125.55464436 .00003113 00000-0 68915-3 0 9999

TLE line 2: 2 54962 98.6379 173.2171 0131883 62.9138 298.5441 14.52669149130920

Live tracking on map

Real-time ground track for satellite CZ-6A DEB.

In-orbit conjunctions

A list of the most updated potential collisions computed for object CZ-6A DEB.

Target Orbit TCA Probability of collision Miss distance Type
COSMOS 1992 LEO 2024-11-29 02:33:44 0.0001214428 889.0 (m) PAYLOAD

Associated space launch

Chinese satellite reported for atmospheric/ocean/environmental/spatial parameter research purposes, details TBD.

CZ-6A DEB was lifted into orbit during the mission ‘Long March 6A | Yunhai 3’, on board a Long March 6A space rocket.

The launch took place on Nov. 11, 2022, 10:52 p.m. from Launch Complex 9A.

For more information about the launch, click the button.

Launch to space Long March 6A | Yunhai 3
Long March 6A | Yunhai 3

Agency: N/A

Status: Launch Successful

Launch date: Nov. 11, 2022, 10:52 p.m. UTC

Rocket: Long March 6A

Launch pad: Launch Complex 9A

Location: Taiyuan Satellite Launch Center, People's Republic of China

...

Latest news about this satellite

There are no fresh news available about this satellite. Check back as we update our databases every day.


Newsletter sign-up

Weekly statistics, charts and insights to help you stay on top of the space industry.